Location: Unspecified
(0.0000°N, 0.0000°E)
Time: 21:44:02
(UTC+00:00)

STARLINK-1942 - Visible Passes

Search period start: 12 January 2025 00:00
Search period end: 22 January 2025 00:00
Orbit: 546 x 548 km, 53.1° (Epoch: 12 January)

Date Brightness Start Highest point End Pass type
(mag) Time Alt. Az. Time Alt. Az. Time Alt. Az.
12 Jan 3.9 19:29:25 10° SSW 19:33:23 47° SE 19:33:43 46° ESE visible
13 Jan 3.5 19:22:56 10° SSW 19:27:04 78° ESE 19:28:23 42° NE visible
14 Jan 3.9 19:16:36 10° SW 19:20:42 65° NW 19:23:02 24° NNE visible
15 Jan 4.7 19:10:25 10° SW 19:14:17 40° NW 19:17:43 13° NNE visible
16 Jan 6.4 05:29:54 10° NNE 05:31:43 13° NE 05:33:32 10° E visible
16 Jan 5.5 19:04:25 10° WSW 19:07:52 26° NW 19:11:18 10° N visible
17 Jan 6.0 05:22:19 10° N 05:25:17 19° NE 05:28:16 10° ESE visible
17 Jan 6.2 18:58:41 10° W 19:01:24 17° NW 19:04:06 10° NNW visible
18 Jan 5.3 05:15:13 10° N 05:18:49 29° NE 05:22:25 10° ESE visible
18 Jan 6.5 18:53:47 10° WNW 18:54:56 11° NW 18:56:04 10° NW visible
19 Jan 4.5 05:08:34 11° NNW 05:12:18 46° NE 05:16:15 10° SE visible
20 Jan 3.7 05:03:06 21° NNW 05:05:45 75° ENE 05:09:51 10° SE visible
21 Jan 3.5 04:57:37 36° NW 04:59:09 68° WSW 05:03:15 10° SSE visible
